Shelbyville, IN

10:22 PM EDT on June 22, 2017 (GMT -0400)
Shelbyville Municipal

Weather History for KGEZ - November, 2013

Change the Weather History Date:

Monday, November 25, 2013

  Actual Average Record
Temperature  
Mean Temperature 28 °F 40 °F  
Max Temperature 35 °F 48 °F 62 °F (2006)
Min Temperature 21 °F 31 °F 12 °F (2005)
Degree Days  
Heating Degree Days 37 25  
Month to date heating degree days 549 505  
Since 1 July heating degree days 894 940  
Cooling Degree Days 0 0  
Month to date cooling degree days 0 0  
Year to date cooling degree days 1179 913  
Moisture  
Dew Point 16 °F    
Average Humidity 56    
Maximum Humidity 68    
Minimum Humidity 43    
Precipitation  
Precipitation T in 0.12 in 1.82 in (2010)
Month to date precipitation 1.52 3.11  
Year to date precipitation 29.24 39.67  
Sea Level Pressure  
Sea Level Pressure 30.32 in    
Wind  
Wind Speed 9 mph (SSW)    
Max Wind Speed 17 mph    
Max Gust Speed 21 mph    
Visibility 10 miles    
Events Snow    
T = Trace of Precipitation, MM = Missing Value Source: NWS Daily Summary

Daily Weather History Graph

Daily Weather History Graph

Search for Another Location

Airport or City:

Trip Planner

Search our weather history database for the weather conditions in past years. The results will help you decide how hot, cold, wet, or windy it might be!

Date:

Astronomy

Nov. 25, 2013 Rise Set
Actual Time 7:38 AM EST 5:21 PM EST
Civil Twilight 7:09 AM EST 5:51 PM EST
Nautical Twilight 6:36 AM EST 6:24 PM EST
Astronomical Twilight 6:03 AM EST 6:56 PM EST
Moon No Moon Rise 12:56 PM EST (11/25)
Length of Visible Light 10h 41m
Length of Day
9h 42m
Waning Gibbous, 51% of the Moon is Illuminated
Nov 25
Waning Gibbous
Nov 25
Last Quarter
Dec 2
New
Dec 9
First Quarter
Dec 17
Full

Hourly Weather History & Observations

Time (EST) Temp. Windchill Dew Point Humidity Pressure Visibility Wind Dir Wind Speed Gust Speed Precip Events Conditions
12:53 AM 21.9 °F 14.5 °F 10.9 °F 63% 30.52 in 10.0 mi South 5.8 mph - N/A   Clear
1:53 AM 21.9 °F 14.5 °F 12.0 °F 66% 30.50 in 10.0 mi South 5.8 mph - N/A   Clear
2:53 AM 24.1 °F 17.0 °F 12.9 °F 62% 30.47 in 10.0 mi South 5.8 mph - N/A   Clear
3:53 AM 24.1 °F 14.4 °F 14.0 °F 65% 30.45 in 10.0 mi South 9.2 mph - N/A   Clear
4:53 AM 25.0 °F 17.1 °F 15.1 °F 66% 30.44 in 10.0 mi South 6.9 mph - N/A   Clear
5:53 AM 25.0 °F 17.1 °F 14.0 °F 63% 30.41 in 10.0 mi South 6.9 mph - N/A   Clear
6:53 AM 25.0 °F 17.1 °F 15.1 °F 66% 30.41 in 10.0 mi South 6.9 mph - N/A   Clear
7:53 AM 24.1 °F 13.7 °F 15.1 °F 69% 30.40 in 10.0 mi South 10.4 mph - N/A   Clear
8:53 AM 26.1 °F 14.5 °F 14.0 °F 60% 30.38 in 10.0 mi South 13.8 mph - N/A   Clear
9:53 AM 28.0 °F 17.5 °F 15.1 °F 58% 30.37 in 10.0 mi South 12.7 mph - N/A   Partly Cloudy
10:53 AM 30.0 °F 20.5 °F 15.1 °F 54% 30.35 in 10.0 mi South 11.5 mph - N/A   Overcast
11:53 AM 32.0 °F 22.5 °F 15.1 °F 50% 30.31 in 10.0 mi SSW 12.7 mph - N/A   Overcast
12:53 PM 33.1 °F 23.9 °F 14.0 °F 46% 30.28 in 10.0 mi SSW 12.7 mph - N/A   Overcast
1:53 PM 34.0 °F 25.5 °F 14.0 °F 44% 30.27 in 10.0 mi SW 11.5 mph - N/A   Overcast
2:53 PM 35.1 °F 28.6 °F 15.1 °F 44% 30.25 in 10.0 mi SSW 8.1 mph - N/A   Overcast
3:53 PM 35.1 °F 29.3 °F 17.1 °F 48% 30.25 in 10.0 mi SSW 6.9 mph - N/A   Overcast
4:53 PM 35.1 °F 29.3 °F 17.1 °F 48% 30.25 in 10.0 mi South 6.9 mph - N/A   Overcast
5:53 PM 34.0 °F 31.0 °F 19.0 °F 54% 30.25 in 10.0 mi SSW 3.5 mph - N/A   Overcast
6:53 PM 35.1 °F 29.3 °F 18.0 °F 50% 30.22 in 10.0 mi SSW 6.9 mph - N/A   Overcast
7:53 PM 35.1 °F 28.6 °F 18.0 °F 50% 30.25 in 10.0 mi SSW 8.1 mph - N/A   Overcast
8:53 PM 35.1 °F 27.4 °F 18.0 °F 50% 30.24 in 10.0 mi SW 10.4 mph - N/A   Overcast
9:53 PM 34.0 °F 26.6 °F 21.0 °F 59% 30.23 in 9.0 mi WSW 9.2 mph - 0.00 in   Overcast
10:00 PM 34.0 °F 26.6 °F 19.9 °F 56% 30.19 in 10.0 mi SW 9.2 mph - N/A   Overcast
10:53 PM 33.1 °F 26.9 °F 21.9 °F 64% 30.20 in 8.0 mi SW 6.9 mph - 0.00 in Snow Light Snow
11:53 PM 33.1 °F 28.7 °F 23.0 °F 66% 30.20 in 10.0 mi WSW 4.6 mph - 0.00 in   Overcast